Location: Alpnach
(46.9423°N, 8.2718°E)
Time: 18:30:47
(UTC+00:00)

Daily predictions for brighter satellites

Satellite Brightness Start Highest point End
(mag) Time Altitude Azimuth Time Altitude Azimuth Time Altitude Azimuth
Cosmos 2074 Rocket 4.0 17:35:56 10° S 17:42:06 63° E 17:48:16 10° NNE
Cosmos 2154 Rocket 4.4 17:36:41 10° SSE 17:42:26 42° E 17:48:12 10° NNE
YAOGAN 1 2.8 17:39:38 10° SE 17:43:48 48° ENE 17:47:59 10° N
FALCON 9 DEB 4.5 17:42:08 10° WNW 17:44:57 28° N 17:47:46 10° NE
APEX 2.7 17:43:32 10° NNW 17:46:22 67° WSW 17:49:02 10° SSE
COSMO-SKYMED 1 2.7 17:45:34 10° NNE 17:49:57 84° WNW 17:54:17 10° SSW
GP-B 4.2 17:47:45 10° SE 17:51:13 23° ENE 17:54:42 10° NNE
Cosmos 1992 Rocket 4.4 17:49:43 10° S 17:54:37 43° ESE 17:59:34 10° NE
Cosmos 2263 Rocket 3.1 17:49:35 10° NW 17:55:00 54° WSW 18:00:24 10° S
SL-16 R/B 2.2 17:49:31 10° SSW 17:55:07 68° ESE 18:00:47 10° NNE
Cosmos 1437 4.1 17:52:23 10° NNW 17:55:08 39° W 17:57:50 10° SSW
Meteor 1-18 Rocket 4.4 17:49:56 10° N 17:55:48 57° ENE 18:01:36 10° SSE
Cosmos 968 Rocket 3.5 17:50:40 10° NNW 17:55:58 83° ENE 18:01:15 10° SSE
ARGOS 3.3 17:51:40 10° SE 17:56:55 54° ENE 18:02:12 10° N
USA 234 4.1 17:54:03 10° ENE 17:59:37 29° SE 18:05:11 10° S
Cosmos 1486 Rocket 4.0 17:54:24 10° NNW 17:59:43 79° ENE 18:05:02 10° SSE
Cosmos 1515 3.7 17:56:20 10° N 18:00:08 59° ENE 18:03:54 10° SSE
Okean 1 3.4 17:56:13 10° N 18:00:13 58° ENE 18:04:12 10° SSE
Cosmos 1633 Rocket 3.0 17:58:10 10° S 18:02:34 80° E 18:07:02 10° NNE
Cosmos 2184 Rocket 4.0 17:56:32 10° S 18:02:41 85° E 18:08:55 10° N
SeaSat 1 3.0 17:58:16 10° NE 18:02:49 35° ESE 18:07:19 10° S
OBJECT-B 3.0 18:03:20 10° ENE 18:03:25 10° ENE 18:04:00 10° NE
Okean 1-7 4.1 17:59:58 10° NNE 18:03:37 25° ENE 18:07:13 10° SE
Cosmos 1707 Rocket 4.2 17:59:23 10° NNW 18:03:43 62° W 18:08:00 10° S
CZ-2C R/B 3.0 18:02:53 10° NNE 18:08:05 41° E 18:13:06 10° SSE
CZ-4 R/B 1.4 18:04:22 10° S 18:08:12 81° WSW 18:12:09 10° NNW
H-2A R/B 2.2 18:02:47 10° SSE 18:08:14 89° WSW 18:13:44 10° NNW
SAR-Lupe-4 3.7 18:07:11 10° NNE 18:10:41 48° E 18:14:09 10° S
USA 305 4.2 18:07:03 10° WNW 18:10:58 33° N 18:14:49 10° ENE
IRS-1C Rocket 4.5 18:06:49 10° S 18:12:04 69° WSW 18:17:21 10° NNW
Gbstr 26 Del rocket 3.8 18:09:24 10° W 18:13:41 52° N 18:18:27 12° ENE
Cosmos 2237 4.4 18:08:56 10° S 18:14:27 52° ESE 18:20:01 10° NE
Meteor 1-20 Rocket 4.4 18:09:29 10° SSW 18:14:56 77° WNW 18:20:28 10° N
SL-4 R/B 2.4 18:12:58 10° WNW 18:16:21 40° N 18:18:38 17° ENE
USA 307 4.2 18:18:25 10° WNW 18:22:19 33° N 18:25:41 13° NE
ATLAS CENTAUR R/B 1.3 18:20:41 10° SSW 18:24:07 44° ESE 18:26:57 14° NE
USA 186 3.0 18:25:07 16° NE 18:25:07 16° NE 18:26:06 10° NNE
FALCON 9 DEB 3.1 18:20:50 10° WNW 18:24:16 65° NNE 18:26:13 23° ESE
USA 306 4.2 18:21:53 10° WNW 18:25:45 32° N 18:28:56 14° NE
Cosmos 1354 Rocket 4.0 18:21:11 10° NNW 18:26:26 67° ENE 18:31:38 10° SSE
Cosmos 44 Rocket 3.9 18:22:40 10° NW 18:27:51 63° WSW 18:32:58 10° SSE
ERS-2 2.0 18:24:18 10° NNE 18:27:59 87° ESE 18:31:38 10° SSW
Okean-O 3.1 18:23:40 10° S 18:28:03 64° WSW 18:32:28 10° NNW
FALCON 9 DEB 4.5 18:25:27 10° WNW 18:28:10 26° N 18:29:48 17° NE
CSL-04 Rocket 3.7 18:23:50 10° SSE 18:29:22 79° ENE 18:34:54 10° NNW
SAR-Lupe-1 4.0 18:26:31 10° NNE 18:30:08 87° ESE 18:33:44 10° SSW
Cosmos 1844 Rocket 2.6 18:24:35 10° NNW 18:30:10 67° ENE 18:35:42 10° SE
Cosmos 2084 Rocket 3.7 18:25:59 10° NW 18:30:20 74° SW 18:34:49 10° SSE
CSL-04 Debris 4.2 18:25:17 10° SSE 18:30:43 86° ENE 18:36:14 10° NNW
USA 308 4.2 18:29:06 10° WNW 18:32:58 32° N 18:35:51 15° NE
Cosmos 1666 3.2 18:30:26 10° SSE 18:33:48 34° E 18:37:12 10° NNE
HJ-1C 3.8 18:32:43 10° S 18:36:01 63° W 18:39:18 10° NNW
Cosmos 1503 Rocket 4.0 18:31:26 10° NNW 18:36:40 88° WSW 18:41:50 10° SSE
Cosmos 2341 Rocket 4.0 18:31:36 10° S 18:37:45 58° E 18:43:53 10° NNE
Meteor 1-5 Rocket 4.2 18:32:53 10° S 18:38:05 53° E 18:43:26 10° NNE
Cosmos 1470 Rocket 3.9 18:37:21 10° SSW 18:41:49 71° W 18:46:16 10° N
Cosmos 1844 3.7 18:36:12 10° NNW 18:41:59 69° ENE 18:46:58 14° SE
Okean 3 4.3 18:38:28 10° N 18:42:15 30° ENE 18:42:56 29° E
CZ-4B R/B 4.4 18:40:50 10° NNW 18:42:55 17° WNW 18:45:00 10° WSW
Cosmos 2360 Rocket 2.1 18:38:52 10° SSW 18:44:29 75° ESE 18:50:10 10° NNE
Ariane Rocket 3.5 18:42:04 22° ESE 18:44:51 39° ENE 18:49:34 10° N
Cosmos 2278 Rocket 3.4 18:42:46 10° N 18:47:13 23° NE 18:48:36 21° ENE
Cosmos 1500 3.5 18:48:49 10° SSW 18:52:31 65° W 18:56:15 10° N
Meteor 2-4 Rocket 3.9 18:48:06 10° NNW 18:53:57 83° W 18:59:53 10° S
Cosmos 1703 Rocket 3.4 18:49:45 10° N 18:54:11 84° E 18:58:32 10° S
Cosmos 2333 Rocket 2.5 18:49:25 10° S 18:54:41 41° ESE 19:00:00 10° NE
Cosmos 2218 Rocket 4.1 18:50:10 10° SSE 18:56:20 53° E 19:02:31 10° NNE
Cosmos 1689 Rocket 4.1 18:53:52 10° N 18:56:26 29° WNW 18:59:00 10° SW
SL-08 RB Rocket 4.1 18:52:11 10° S 18:56:39 63° W 19:01:12 10° NNW
ERBS 4.4 18:58:07 10° WNW 19:00:45 21° NNW 19:02:19 16° NNE
Cosmos 1933 Rocket 4.0 18:58:25 10° SSW 19:02:44 64° W 19:07:06 10° N
Aureole 2 Rocket 4.5 19:03:06 10° NW 19:04:58 19° WSW 19:06:49 10° SSW
Resurs 01 Rocket 2.9 19:12:41 26° NE 19:12:41 26° NE 19:15:21 10° N
Cosmos 2242 Rocket 4.2 19:07:46 10° NNW 19:12:12 57° W 19:16:33 10° S
Cosmos 864 Rocket 4.4 19:07:02 10° S 19:13:05 65° E 19:19:15 10° NNE
Cosmos 2322 Rocket 3.4 19:09:24 10° SW 19:14:42 41° NW 19:20:02 10° NNE
Lacrosse 4 Rocket 2.8 19:12:20 10° S 19:14:29 26° S 19:14:29 26° S
Abrixas rocket 3.8 19:14:50 10° WNW 19:16:07 25° WNW 19:16:07 25° WNW
SME Rocket 4.1 19:10:02 10° NNE 19:18:21 72° ESE 19:23:39 10° S
Cosmos 1959 Rocket 4.3 19:12:26 10° S 19:18:30 74° E 19:24:37 10° NNE
Cosmos 192 4.1 19:16:59 10° SSW 19:21:52 75° ESE 19:26:47 10° NNE
SJ-6B 3.0 19:22:30 40° S 19:23:53 73° WSW 19:27:58 10° NNW
COSMOS 2428 2.8 19:19:13 10° S 19:24:41 52° ESE 19:24:51 51° ESE
ASTEX 1 3.2 19:22:34 10° N 19:27:30 81° E 19:30:11 27° S
MOS 1 4.2 19:25:33 28° SSE 19:28:42 89° ENE 19:34:25 10° NNW
Meteor 1-23 Rocket 4.1 19:24:14 10° N 19:29:46 61° ENE 19:30:27 57° ESE
Cosmos 2219 Rocket 2.0 19:26:06 10° SSW 19:31:37 69° ESE 19:37:13 10° NNE
Meteor 1-11 Rocket 3.6 19:26:02 10° S 19:31:46 85° E 19:37:25 10° NNE
OBJECT-B 2.4 19:36:25 32° NW 19:36:25 32° NW 19:38:23 10° NNW
Resurs 1-3 3.6 19:38:47 72° N 19:38:47 72° N 19:42:46 10° NNW
SL-16 R/B 4.3 19:35:09 10° W 19:39:46 25° NW 19:44:24 10° N
SeaSat 1 3.8 19:35:46 10° NNE 19:40:21 39° NW 19:44:54 10° WSW
SJ 16-02 2.3 19:36:42 10° NNW 19:39:34 36° N 19:39:34 36° N
USA 234 3.1 19:39:54 33° NE 19:43:09 90° ESE 19:49:43 10° SW
Cosmos 1066 Rocket 4.2 19:37:56 10° NNW 19:43:41 83° W 19:45:41 43° S
CZ-2C R/B 4.4 19:43:24 10° N 19:48:14 32° WNW 19:52:58 10° SW
Meteor 2-20 Rocket 4.4 19:43:16 10° N 19:49:08 63° ENE 19:49:08 63° ENE
Cosmos 2369 Rocket 4.5 19:49:36 10° NNE 19:50:42 11° NNE 19:50:42 11° NNE
Cosmos 2322 3.9 19:46:00 10° SW 19:51:42 70° WNW 19:57:26 10° NNE
USA 305 4.2 19:47:44 10° NW 19:50:56 33° NNW 19:50:56 33° NNW
BREEZE-M DEB (TANK) 3.0 19:48:46 10° WNW 19:51:09 61° NW 19:51:09 61° NW
SL-4 R/B 3.8 19:52:38 10° WNW 19:54:13 25° WNW 19:54:13 25° WNW
Gbstr 26 Del rocket 3.9 19:56:25 10° WNW 20:00:59 56° N 20:00:59 56° N
ATLAS CENTAUR R/B 3.4 20:00:17 10° W 20:03:10 22° NW 20:03:10 22° NW
SPOT 3 Rocket 4.1 20:18:37 55° NW 20:18:37 55° NW 20:22:55 10° NNW
NOSS 3-3 (A) 4.4 20:10:37 10° NW 20:18:08 81° NE 20:18:42 76° E
NOSS 3-3 (C) 4.4 20:10:43 10° NW 20:18:13 81° NE 20:18:47 76° E
Cosmos 2360 Rocket 4.4 20:24:41 10° W 20:29:06 23° NW 20:33:35 10° N
Cosmos 2278 Rocket 2.9 20:26:15 10° NNW 20:30:28 50° NW 20:30:28 50° NW
Cosmos 2333 Rocket 3.5 20:33:44 10° WSW 20:38:59 37° NW 20:44:18 10° NNE
Resurs 01 Rocket 4.1 20:50:14 20° NW 20:50:14 20° NW 20:51:53 10° NNW
Cosmos 1943 Rocket 4.1 20:46:11 10° NNW 20:48:24 21° N 20:48:24 21° N
Cosmos 2219 Rocket 4.2 21:11:37 10° W 21:16:07 24° NW 21:20:39 10° N
USA 234 4.3 21:27:15 39° NW 21:27:15 39° NW 21:31:58 10° W
